Location: Berlin
(42.3812°N, 71.6370°W)
Time: 05:16:33
(UTC+00:00)

ARGOS - Pass Details

Date: 15 November 2025
Orbit: 819 x 832 km, 98.5° (Epoch: 09 December)

Event Time Altitude Azimuth Distance (km) Brightness Sun altitude
Rises 08:39:30 0° 14° (NNE) 3,388 6.6 -32.9°
Reaches altitude 10° 08:41:52 10° 16° (NNE) 2,450 5.8 -32.4°
Enters shadow 08:44:42 32° 21° (NNE) 1,395 4.4 -31.9°
